Information on these data can be found in provided Readme document
Contact Info: Zachary Fasnacht (zachary.fasnacht@ssaihq.com); Nickolay Krotkov (nickolay.a.krotkov@nasa.gov); Lok Lamsal (lok.lamsal@nasa.gov)

FillValue: -999.
ScaleFactor: 1e15
Units: molecules/cm^2

Date(yyyy-mm-dd),City,Country,LonCenter,LatCenter,BoundingCoordinates,Median,Q1,Q3,Mean,Baseline_Median,Baseline_Q1,Baseline_Q3,Baseline_Mean,NumGoodSamples,NumTotalSamples
2015-01-01,Sacramento,UnitedStates,-121.4944,38.5816,[-121.9944 38.0816 -120.9944 39.0816],2.458,1.187,3.847,2.756,2.32,1.138,3.729,2.577,230.0,576.0
2015-01-02,Sacramento,UnitedStates,-121.4944,38.5816,[-121.9944 38.0816 -120.9944 39.0816],2.699,1.44,4.459,3.031,2.421,1.236,3.933,2.687,192.0,575.0
2015-01-03,Sacramento,UnitedStates,-121.4944,38.5816,[-121.9944 38.0816 -120.9944 39.0816],2.713,1.44,4.487,3.05,2.517,1.199,3.945,2.71,195.0,573.0
2015-01-04,Sacramento,UnitedStates,-121.4944,38.5816,[-121.9944 38.0816 -120.9944 39.0816],3.226,1.91,4.798,3.458,2.808,1.368,4.358,2.974,165.0,580.0
2015-01-05,Sacramento,UnitedStates,-121.4944,38.5816,[-121.9944 38.0816 -120.9944 39.0816],3.226,2.093,4.703,3.61,3.117,1.494,4.519,3.176,167.0,578.0
2015-01-06,Sacramento,UnitedStates,-121.4944,38.5816,[-121.9944 38.0816 -120.9944 39.0816],3.331,2.1,4.798,3.678,3.052,1.504,4.552,3.223,190.0,579.0
2015-01-07,Sacramento,UnitedStates,-121.4944,38.5816,[-121.9944 38.0816 -120.9944 39.0816],3.442,2.479,4.915,3.813,2.917,1.468,4.585,3.167,169.0,585.0
2015-01-08,Sacramento,UnitedStates,-121.4944,38.5816,[-121.9944 38.0816 -120.9944 39.0816],3.682,2.479,5.131,3.905,3.184,1.785,4.727,3.396,179.0,580.0
2015-01-09,Sacramento,UnitedStates,-121.4944,38.5816,[-121.9944 38.0816 -120.9944 39.0816],3.226,2.117,5.131,3.847,3.096,1.703,4.845,3.484,146.0,538.0
2015-01-10,Sacramento,UnitedStates,-121.4944,38.5816,[-121.9944 38.0816 -120.9944 39.0816],3.226,2.117,5.131,3.847,3.21,1.74,4.788,3.573,146.0,532.0
2015-01-11,Sacramento,UnitedStates,-121.4944,38.5816,[-121.9944 38.0816 -120.9944 39.0816],3.048,1.835,5.587,3.635,3.024,1.532,4.815,3.351,113.0,537.0
2015-01-12,Sacramento,UnitedStates,-121.4944,38.5816,[-121.9944 38.0816 -120.9944 39.0816],3.112,2.066,5.131,3.624,3.062,1.636,4.663,3.343,116.0,533.0
2015-01-13,Sacramento,UnitedStates,-121.4944,38.5816,[-121.9944 38.0816 -120.9944 39.0816],3.048,1.926,4.462,3.554,3.078,1.618,4.428,3.332,117.0,545.0
2015-01-14,Sacramento,UnitedStates,-121.4944,38.5816,[-121.9944 38.0816 -120.9944 39.0816],3.378,2.066,5.131,3.91,3.059,1.77,4.579,3.288,97.0,545.0
2015-01-15,Sacramento,UnitedStates,-121.4944,38.5816,[-121.9944 38.0816 -120.9944 39.0816],3.321,2.04,5.131,3.824,3.215,1.781,4.644,3.341,106.0,545.0
2015-01-16,Sacramento,UnitedStates,-121.4944,38.5816,[-121.9944 38.0816 -120.9944 39.0816],3.378,2.066,5.131,3.886,3.24,1.99,4.798,3.524,104.0,539.0
2015-01-17,Sacramento,UnitedStates,-121.4944,38.5816,[-121.9944 38.0816 -120.9944 39.0816],3.378,2.079,5.131,3.917,3.178,1.974,4.796,3.503,131.0,538.0
2015-01-18,Sacramento,UnitedStates,-121.4944,38.5816,[-121.9944 38.0816 -120.9944 39.0816],3.186,2.079,5.502,3.907,3.097,1.904,4.832,3.472,128.0,537.0
2015-01-19,Sacramento,UnitedStates,-121.4944,38.5816,[-121.9944 38.0816 -120.9944 39.0816],2.935,1.959,4.834,3.679,3.048,1.923,4.633,3.442,165.0,536.0
2015-01-20,Sacramento,UnitedStates,-121.4944,38.5816,[-121.9944 38.0816 -120.9944 39.0816],3.047,1.898,5.587,3.829,3.019,1.911,4.802,3.439,134.0,543.0
2015-01-21,Sacramento,UnitedStates,-121.4944,38.5816,[-121.9944 38.0816 -120.9944 39.0816],3.581,2.144,6.082,4.114,3.247,2.091,5.169,3.689,140.0,542.0
2015-01-22,Sacramento,UnitedStates,-121.4944,38.5816,[-121.9944 38.0816 -120.9944 39.0816],3.662,2.231,6.082,4.215,3.268,2.037,5.256,3.732,165.0,545.0
2015-01-23,Sacramento,UnitedStates,-121.4944,38.5816,[-121.9944 38.0816 -120.9944 39.0816],3.581,2.156,6.082,4.096,3.535,2.224,5.493,3.883,158.0,550.0
2015-01-24,Sacramento,UnitedStates,-121.4944,38.5816,[-121.9944 38.0816 -120.9944 39.0816],3.395,2.056,5.663,3.827,3.473,2.195,5.38,3.785,182.0,581.0
2015-01-25,Sacramento,UnitedStates,-121.4944,38.5816,[-121.9944 38.0816 -120.9944 39.0816],3.395,2.056,5.663,3.827,3.43,2.145,5.255,3.728,182.0,577.0
2015-01-26,Sacramento,UnitedStates,-121.4944,38.5816,[-121.9944 38.0816 -120.9944 39.0816],3.449,2.064,5.663,3.829,3.455,2.115,5.278,3.748,184.0,574.0
2015-01-27,Sacramento,UnitedStates,-121.4944,38.5816,[-121.9944 38.0816 -120.9944 39.0816],3.397,2.056,5.691,3.879,3.426,2.041,5.2,3.692,175.0,580.0
2015-01-28,Sacramento,UnitedStates,-121.4944,38.5816,[-121.9944 38.0816 -120.9944 39.0816],3.397,2.056,5.663,3.875,3.294,2.039,5.22,3.679,170.0,578.0
2015-01-29,Sacramento,UnitedStates,-121.4944,38.5816,[-121.9944 38.0816 -120.9944 39.0816],3.238,2.056,5.584,3.673,3.365,2.006,5.477,3.681,164.0,585.0
2015-01-30,Sacramento,UnitedStates,-121.4944,38.5816,[-121.9944 38.0816 -120.9944 39.0816],3.311,2.056,5.588,3.73,3.28,2.016,5.315,3.632,155.0,584.0
2015-01-31,Sacramento,UnitedStates,-121.4944,38.5816,[-121.9944 38.0816 -120.9944 39.0816],3.238,1.988,5.584,3.715,3.064,1.845,5.165,3.469,166.0,585.0
2015-02-01,Sacramento,UnitedStates,-121.4944,38.5816,[-121.9944 38.0816 -120.9944 39.0816],3.282,1.959,5.559,3.667,3.089,1.856,5.299,3.477,139.0,579.0
2015-02-02,Sacramento,UnitedStates,-121.4944,38.5816,[-121.9944 38.0816 -120.9944 39.0816],3.311,1.947,5.299,3.67,3.128,1.858,5.117,3.479,162.0,576.0
2015-02-03,Sacramento,UnitedStates,-121.4944,38.5816,[-121.9944 38.0816 -120.9944 39.0816],3.887,2.08,5.663,3.921,3.163,1.771,5.132,3.498,125.0,576.0
2015-02-04,Sacramento,UnitedStates,-121.4944,38.5816,[-121.9944 38.0816 -120.9944 39.0816],3.662,1.947,5.362,3.729,3.143,1.843,5.086,3.5,154.0,574.0
2015-02-05,Sacramento,UnitedStates,-121.4944,38.5816,[-121.9944 38.0816 -120.9944 39.0816],3.034,1.484,4.542,3.158,2.925,1.692,4.934,3.361,121.0,580.0
2015-02-06,Sacramento,UnitedStates,-121.4944,38.5816,[-121.9944 38.0816 -120.9944 39.0816],2.811,1.608,3.913,2.876,2.885,1.726,4.789,3.289,124.0,577.0
2015-02-07,Sacramento,UnitedStates,-121.4944,38.5816,[-121.9944 38.0816 -120.9944 39.0816],2.811,1.501,3.994,2.829,2.738,1.577,4.408,3.064,151.0,579.0
2015-02-08,Sacramento,UnitedStates,-121.4944,38.5816,[-121.9944 38.0816 -120.9944 39.0816],2.958,1.85,3.994,3.045,2.712,1.626,4.401,3.064,128.0,584.0
2015-02-09,Sacramento,UnitedStates,-121.4944,38.5816,[-121.9944 38.0816 -120.9944 39.0816],2.757,1.608,3.993,2.883,2.895,1.682,4.388,3.101,152.0,579.0
2015-02-10,Sacramento,UnitedStates,-121.4944,38.5816,[-121.9944 38.0816 -120.9944 39.0816],2.757,1.58,3.994,2.864,2.898,1.666,4.438,3.092,150.0,538.0
2015-02-11,Sacramento,UnitedStates,-121.4944,38.5816,[-121.9944 38.0816 -120.9944 39.0816],2.977,1.779,3.857,2.946,3.0,1.637,4.426,3.084,170.0,536.0
2015-02-12,Sacramento,UnitedStates,-121.4944,38.5816,[-121.9944 38.0816 -120.9944 39.0816],2.977,1.779,3.857,2.946,3.055,1.822,4.508,3.171,170.0,541.0
2015-02-13,Sacramento,UnitedStates,-121.4944,38.5816,[-121.9944 38.0816 -120.9944 39.0816],2.958,1.748,3.878,2.937,2.935,1.783,4.254,3.066,194.0,539.0
2015-02-14,Sacramento,UnitedStates,-121.4944,38.5816,[-121.9944 38.0816 -120.9944 39.0816],2.958,1.748,3.887,2.942,2.958,1.775,4.172,3.056,200.0,545.0
2015-02-15,Sacramento,UnitedStates,-121.4944,38.5816,[-121.9944 38.0816 -120.9944 39.0816],2.811,1.623,3.994,2.857,2.924,1.846,4.193,3.042,199.0,544.0
2015-02-16,Sacramento,UnitedStates,-121.4944,38.5816,[-121.9944 38.0816 -120.9944 39.0816],2.811,1.58,3.987,2.792,2.955,1.872,4.214,3.062,226.0,545.0
2015-02-17,Sacramento,UnitedStates,-121.4944,38.5816,[-121.9944 38.0816 -120.9944 39.0816],2.757,1.552,3.837,2.725,2.97,1.814,4.218,3.052,203.0,542.0
2015-02-18,Sacramento,UnitedStates,-121.4944,38.5816,[-121.9944 38.0816 -120.9944 39.0816],2.849,1.608,3.994,2.823,2.987,1.817,4.232,3.037,235.0,540.0
2015-02-19,Sacramento,UnitedStates,-121.4944,38.5816,[-121.9944 38.0816 -120.9944 39.0816],2.811,1.58,3.994,2.797,2.956,1.844,4.214,3.044,206.0,539.0
2015-02-20,Sacramento,UnitedStates,-121.4944,38.5816,[-121.9944 38.0816 -120.9944 39.0816],2.811,1.552,4.007,2.815,2.923,1.856,4.043,2.993,231.0,539.0
2015-02-21,Sacramento,UnitedStates,-121.4944,38.5816,[-121.9944 38.0816 -120.9944 39.0816],2.801,1.417,4.042,2.779,2.958,1.851,4.089,2.998,199.0,545.0
2015-02-22,Sacramento,UnitedStates,-121.4944,38.5816,[-121.9944 38.0816 -120.9944 39.0816],2.726,1.542,3.893,2.762,2.944,1.895,4.021,3.002,199.0,544.0
2015-02-23,Sacramento,UnitedStates,-121.4944,38.5816,[-121.9944 38.0816 -120.9944 39.0816],2.931,1.583,4.042,2.953,2.962,1.869,4.073,3.016,225.0,546.0
2015-02-24,Sacramento,UnitedStates,-121.4944,38.5816,[-121.9944 38.0816 -120.9944 39.0816],3.074,1.7,4.127,3.024,2.956,1.791,3.954,2.959,206.0,550.0
2015-02-25,Sacramento,UnitedStates,-121.4944,38.5816,[-121.9944 38.0816 -120.9944 39.0816],3.094,1.739,4.214,3.09,2.95,1.828,3.968,2.993,231.0,579.0
2015-02-26,Sacramento,UnitedStates,-121.4944,38.5816,[-121.9944 38.0816 -120.9944 39.0816],2.958,1.588,4.416,3.061,2.95,1.792,4.015,2.99,211.0,573.0
2015-02-27,Sacramento,UnitedStates,-121.4944,38.5816,[-121.9944 38.0816 -120.9944 39.0816],2.864,1.825,4.127,2.995,2.857,1.753,3.902,2.886,242.0,568.0
2015-02-28,Sacramento,UnitedStates,-121.4944,38.5816,[-121.9944 38.0816 -120.9944 39.0816],2.864,1.958,4.164,3.011,2.945,1.893,4.047,2.974,218.0,572.0
2015-03-01,Sacramento,UnitedStates,-121.4944,38.5816,[-121.9944 38.0816 -120.9944 39.0816],2.762,1.793,3.987,2.917,2.824,1.738,4.015,2.903,245.0,570.0
2015-03-02,Sacramento,UnitedStates,-121.4944,38.5816,[-121.9944 38.0816 -120.9944 39.0816],2.797,2.134,3.903,2.994,2.949,1.895,4.12,3.032,240.0,580.0
2015-03-03,Sacramento,UnitedStates,-121.4944,38.5816,[-121.9944 38.0816 -120.9944 39.0816],2.801,2.182,3.97,3.072,2.86,1.884,4.157,2.965,213.0,580.0
2015-03-04,Sacramento,UnitedStates,-121.4944,38.5816,[-121.9944 38.0816 -120.9944 39.0816],2.801,2.182,3.97,3.072,2.821,1.734,4.029,2.897,213.0,578.0
2015-03-05,Sacramento,UnitedStates,-121.4944,38.5816,[-121.9944 38.0816 -120.9944 39.0816],2.762,2.182,3.82,2.994,2.734,1.723,3.871,2.859,181.0,574.0
2015-03-06,Sacramento,UnitedStates,-121.4944,38.5816,[-121.9944 38.0816 -120.9944 39.0816],2.801,2.182,4.113,3.145,2.697,1.681,3.908,2.846,203.0,573.0
2015-03-07,Sacramento,UnitedStates,-121.4944,38.5816,[-121.9944 38.0816 -120.9944 39.0816],2.797,2.182,4.099,3.171,2.545,1.668,3.875,2.798,178.0,573.0
2015-03-08,Sacramento,UnitedStates,-121.4944,38.5816,[-121.9944 38.0816 -120.9944 39.0816],2.797,2.182,4.113,3.139,2.499,1.665,3.846,2.739,191.0,572.0
2015-03-09,Sacramento,UnitedStates,-121.4944,38.5816,[-121.9944 38.0816 -120.9944 39.0816],2.914,2.182,4.433,3.309,2.443,1.578,3.836,2.707,161.0,578.0
2015-03-10,Sacramento,UnitedStates,-121.4944,38.5816,[-121.9944 38.0816 -120.9944 39.0816],2.847,2.182,4.113,3.049,2.504,1.599,3.851,2.642,165.0,577.0
2015-03-11,Sacramento,UnitedStates,-121.4944,38.5816,[-121.9944 38.0816 -120.9944 39.0816],2.804,2.134,4.091,2.993,2.428,1.496,3.721,2.525,191.0,580.0
2015-03-12,Sacramento,UnitedStates,-121.4944,38.5816,[-121.9944 38.0816 -120.9944 39.0816],2.762,2.068,3.97,2.898,2.406,1.437,3.703,2.475,170.0,587.0
2015-03-13,Sacramento,UnitedStates,-121.4944,38.5816,[-121.9944 38.0816 -120.9944 39.0816],2.762,2.068,3.97,2.898,2.49,1.458,3.733,2.542,171.0,579.0
2015-03-14,Sacramento,UnitedStates,-121.4944,38.5816,[-121.9944 38.0816 -120.9944 39.0816],2.762,1.814,4.113,2.962,2.527,1.366,3.77,2.622,140.0,539.0
2015-03-15,Sacramento,UnitedStates,-121.4944,38.5816,[-121.9944 38.0816 -120.9944 39.0816],2.797,1.83,4.277,3.072,2.36,1.235,3.611,2.511,148.0,539.0
2015-03-16,Sacramento,UnitedStates,-121.4944,38.5816,[-121.9944 38.0816 -120.9944 39.0816],3.319,1.962,4.737,3.33,2.541,1.28,3.732,2.55,115.0,546.0
2015-03-17,Sacramento,UnitedStates,-121.4944,38.5816,[-121.9944 38.0816 -120.9944 39.0816],3.319,2.003,4.737,3.424,2.476,1.27,3.679,2.519,115.0,544.0
2015-03-18,Sacramento,UnitedStates,-121.4944,38.5816,[-121.9944 38.0816 -120.9944 39.0816],3.319,1.962,4.737,3.379,2.499,1.272,3.587,2.48,122.0,552.0
2015-03-19,Sacramento,UnitedStates,-121.4944,38.5816,[-121.9944 38.0816 -120.9944 39.0816],3.518,2.123,4.516,3.452,2.583,1.25,3.621,2.515,133.0,550.0
2015-03-20,Sacramento,UnitedStates,-121.4944,38.5816,[-121.9944 38.0816 -120.9944 39.0816],3.377,2.031,4.516,3.368,2.487,1.181,3.454,2.422,160.0,549.0
2015-03-21,Sacramento,UnitedStates,-121.4944,38.5816,[-121.9944 38.0816 -120.9944 39.0816],3.311,2.027,4.483,3.174,2.44,1.17,3.445,2.363,138.0,545.0
2015-03-22,Sacramento,UnitedStates,-121.4944,38.5816,[-121.9944 38.0816 -120.9944 39.0816],2.92,1.841,4.245,2.983,2.339,1.114,3.456,2.351,171.0,542.0
2015-03-23,Sacramento,UnitedStates,-121.4944,38.5816,[-121.9944 38.0816 -120.9944 39.0816],2.853,1.903,4.188,3.011,2.271,1.091,3.427,2.304,158.0,541.0
2015-03-24,Sacramento,UnitedStates,-121.4944,38.5816,[-121.9944 38.0816 -120.9944 39.0816],2.762,1.877,3.948,2.937,2.212,1.114,3.356,2.295,196.0,541.0
2015-03-25,Sacramento,UnitedStates,-121.4944,38.5816,[-121.9944 38.0816 -120.9944 39.0816],2.745,1.768,3.948,2.901,2.121,1.044,3.27,2.22,165.0,549.0
2015-03-26,Sacramento,UnitedStates,-121.4944,38.5816,[-121.9944 38.0816 -120.9944 39.0816],2.203,1.503,3.518,2.621,2.072,1.04,3.253,2.236,167.0,547.0
2015-03-27,Sacramento,UnitedStates,-121.4944,38.5816,[-121.9944 38.0816 -120.9944 39.0816],2.203,1.503,3.518,2.618,2.108,1.139,3.221,2.249,192.0,549.0
2015-03-28,Sacramento,UnitedStates,-121.4944,38.5816,[-121.9944 38.0816 -120.9944 39.0816],2.189,1.503,3.518,2.612,2.063,1.131,3.188,2.218,193.0,555.0
2015-03-29,Sacramento,UnitedStates,-121.4944,38.5816,[-121.9944 38.0816 -120.9944 39.0816],2.189,1.503,3.518,2.612,2.039,1.166,3.055,2.164,193.0,584.0
2015-03-30,Sacramento,UnitedStates,-121.4944,38.5816,[-121.9944 38.0816 -120.9944 39.0816],2.179,1.503,3.417,2.504,2.022,1.14,3.03,2.117,185.0,576.0
2015-03-31,Sacramento,UnitedStates,-121.4944,38.5816,[-121.9944 38.0816 -120.9944 39.0816],2.179,1.503,3.417,2.5,1.994,1.098,2.964,2.052,186.0,580.0
2015-04-01,Sacramento,UnitedStates,-121.4944,38.5816,[-121.9944 38.0816 -120.9944 39.0816],2.113,1.5,3.377,2.404,1.949,1.098,2.853,2.004,181.0,584.0
2015-04-02,Sacramento,UnitedStates,-121.4944,38.5816,[-121.9944 38.0816 -120.9944 39.0816],2.575,1.593,3.377,2.521,2.013,1.11,2.868,2.036,207.0,579.0
2015-04-03,Sacramento,UnitedStates,-121.4944,38.5816,[-121.9944 38.0816 -120.9944 39.0816],2.189,1.504,3.188,2.361,1.904,1.093,2.818,2.005,203.0,592.0
2015-04-04,Sacramento,UnitedStates,-121.4944,38.5816,[-121.9944 38.0816 -120.9944 39.0816],2.275,1.589,3.241,2.413,2.008,1.244,3.028,2.118,187.0,590.0
2015-04-05,Sacramento,UnitedStates,-121.4944,38.5816,[-121.9944 38.0816 -120.9944 39.0816],2.216,1.535,3.189,2.351,2.037,1.265,3.014,2.127,214.0,586.0
2015-04-06,Sacramento,UnitedStates,-121.4944,38.5816,[-121.9944 38.0816 -120.9944 39.0816],2.275,1.601,3.241,2.407,2.019,1.316,2.92,2.099,181.0,580.0
2015-04-07,Sacramento,UnitedStates,-121.4944,38.5816,[-121.9944 38.0816 -120.9944 39.0816],2.248,1.589,3.189,2.37,1.958,1.207,2.857,2.021,214.0,579.0
2015-04-08,Sacramento,UnitedStates,-121.4944,38.5816,[-121.9944 38.0816 -120.9944 39.0816],2.113,1.535,3.09,2.282,1.961,1.161,2.858,2.026,176.0,578.0
2015-04-09,Sacramento,UnitedStates,-121.4944,38.5816,[-121.9944 38.0816 -120.9944 39.0816],2.01,1.402,3.083,2.15,1.952,1.119,2.941,2.015,213.0,576.0
2015-04-10,Sacramento,UnitedStates,-121.4944,38.5816,[-121.9944 38.0816 -120.9944 39.0816],2.38,1.589,3.188,2.311,2.021,1.13,2.963,2.032,180.0,582.0
2015-04-11,Sacramento,UnitedStates,-121.4944,38.5816,[-121.9944 38.0816 -120.9944 39.0816],2.44,1.7,3.177,2.374,1.99,1.196,2.915,2.031,183.0,581.0
2015-04-12,Sacramento,UnitedStates,-121.4944,38.5816,[-121.9944 38.0816 -120.9944 39.0816],2.432,1.71,3.169,2.37,2.017,1.226,2.942,2.06,210.0,585.0
2015-04-13,Sacramento,UnitedStates,-121.4944,38.5816,[-121.9944 38.0816 -120.9944 39.0816],2.4,1.655,3.169,2.342,1.948,1.183,2.948,2.052,225.0,591.0
2015-04-14,Sacramento,UnitedStates,-121.4944,38.5816,[-121.9944 38.0816 -120.9944 39.0816],2.4,1.639,3.169,2.34,1.984,1.155,2.916,2.036,247.0,585.0
2015-04-15,Sacramento,UnitedStates,-121.4944,38.5816,[-121.9944 38.0816 -120.9944 39.0816],2.4,1.639,3.169,2.343,1.983,1.15,2.902,2.041,246.0,535.0
2015-04-16,Sacramento,UnitedStates,-121.4944,38.5816,[-121.9944 38.0816 -120.9944 39.0816],2.49,1.779,3.177,2.425,2.041,1.262,2.942,2.108,274.0,534.0
2015-04-17,Sacramento,UnitedStates,-121.4944,38.5816,[-121.9944 38.0816 -120.9944 39.0816],2.38,1.655,3.169,2.332,1.995,1.187,2.913,2.064,241.0,541.0
2015-04-18,Sacramento,UnitedStates,-121.4944,38.5816,[-121.9944 38.0816 -120.9944 39.0816],2.296,1.599,3.063,2.276,1.969,1.17,2.855,2.035,252.0,535.0
2015-04-19,Sacramento,UnitedStates,-121.4944,38.5816,[-121.9944 38.0816 -120.9944 39.0816],2.275,1.511,2.809,2.167,2.055,1.171,2.856,2.044,272.0,544.0
2015-04-20,Sacramento,UnitedStates,-121.4944,38.5816,[-121.9944 38.0816 -120.9944 39.0816],2.275,1.544,2.801,2.178,2.058,1.183,2.89,2.058,265.0,547.0
2015-04-21,Sacramento,UnitedStates,-121.4944,38.5816,[-121.9944 38.0816 -120.9944 39.0816],2.227,1.511,2.795,2.159,2.079,1.13,2.896,2.056,290.0,548.0
2015-04-22,Sacramento,UnitedStates,-121.4944,38.5816,[-121.9944 38.0816 -120.9944 39.0816],2.283,1.514,2.809,2.176,2.137,1.298,2.94,2.139,275.0,543.0
2015-04-23,Sacramento,UnitedStates,-121.4944,38.5816,[-121.9944 38.0816 -120.9944 39.0816],2.266,1.544,2.846,2.191,2.142,1.295,2.918,2.135,307.0,540.0
2015-04-24,Sacramento,UnitedStates,-121.4944,38.5816,[-121.9944 38.0816 -120.9944 39.0816],2.296,1.682,2.979,2.295,2.186,1.301,2.999,2.209,270.0,538.0
2015-04-25,Sacramento,UnitedStates,-121.4944,38.5816,[-121.9944 38.0816 -120.9944 39.0816],2.297,1.73,2.964,2.307,2.187,1.385,3.042,2.237,307.0,538.0
2015-04-26,Sacramento,UnitedStates,-121.4944,38.5816,[-121.9944 38.0816 -120.9944 39.0816],2.25,1.575,2.93,2.24,2.175,1.367,3.061,2.24,275.0,546.0
2015-04-27,Sacramento,UnitedStates,-121.4944,38.5816,[-121.9944 38.0816 -120.9944 39.0816],2.285,1.682,2.955,2.271,2.181,1.403,2.994,2.223,275.0,541.0
2015-04-28,Sacramento,UnitedStates,-121.4944,38.5816,[-121.9944 38.0816 -120.9944 39.0816],2.294,1.682,2.959,2.261,2.183,1.399,2.991,2.21,289.0,544.0
2015-04-29,Sacramento,UnitedStates,-121.4944,38.5816,[-121.9944 38.0816 -120.9944 39.0816],2.295,1.682,2.955,2.273,2.204,1.424,2.962,2.226,295.0,552.0
2015-04-30,Sacramento,UnitedStates,-121.4944,38.5816,[-121.9944 38.0816 -120.9944 39.0816],2.295,1.682,2.959,2.295,2.227,1.411,2.969,2.23,305.0,582.0
2015-05-01,Sacramento,UnitedStates,-121.4944,38.5816,[-121.9944 38.0816 -120.9944 39.0816],2.206,1.573,2.944,2.215,2.18,1.378,2.946,2.2,286.0,577.0
2015-05-02,Sacramento,UnitedStates,-121.4944,38.5816,[-121.9944 38.0816 -120.9944 39.0816],2.197,1.595,2.902,2.212,2.172,1.414,3.0,2.214,317.0,570.0
2015-05-03,Sacramento,UnitedStates,-121.4944,38.5816,[-121.9944 38.0816 -120.9944 39.0816],2.206,1.628,2.944,2.239,2.204,1.449,3.017,2.247,299.0,575.0
2015-05-04,Sacramento,UnitedStates,-121.4944,38.5816,[-121.9944 38.0816 -120.9944 39.0816],2.197,1.648,2.944,2.25,2.133,1.393,2.974,2.186,301.0,573.0
2015-05-05,Sacramento,UnitedStates,-121.4944,38.5816,[-121.9944 38.0816 -120.9944 39.0816],2.207,1.648,2.964,2.296,2.189,1.447,3.03,2.245,311.0,581.0
2015-05-06,Sacramento,UnitedStates,-121.4944,38.5816,[-121.9944 38.0816 -120.9944 39.0816],2.227,1.706,3.148,2.341,2.18,1.449,3.076,2.254,303.0,584.0
2015-05-07,Sacramento,UnitedStates,-121.4944,38.5816,[-121.9944 38.0816 -120.9944 39.0816],2.239,1.702,3.126,2.33,2.159,1.398,3.022,2.245,299.0,584.0
2015-05-08,Sacramento,UnitedStates,-121.4944,38.5816,[-121.9944 38.0816 -120.9944 39.0816],2.262,1.706,3.138,2.359,2.136,1.405,2.996,2.248,281.0,577.0
2015-05-09,Sacramento,UnitedStates,-121.4944,38.5816,[-121.9944 38.0816 -120.9944 39.0816],2.341,1.726,3.153,2.418,2.117,1.328,2.944,2.198,309.0,574.0
2015-05-10,Sacramento,UnitedStates,-121.4944,38.5816,[-121.9944 38.0816 -120.9944 39.0816],2.279,1.706,3.153,2.427,2.111,1.363,2.919,2.196,272.0,573.0
2015-05-11,Sacramento,UnitedStates,-121.4944,38.5816,[-121.9944 38.0816 -120.9944 39.0816],2.44,1.693,3.297,2.51,2.15,1.322,2.972,2.219,300.0,592.0
2015-05-12,Sacramento,UnitedStates,-121.4944,38.5816,[-121.9944 38.0816 -120.9944 39.0816],2.413,1.648,3.375,2.524,2.126,1.284,3.004,2.201,271.0,603.0
2015-05-13,Sacramento,UnitedStates,-121.4944,38.5816,[-121.9944 38.0816 -120.9944 39.0816],2.44,1.648,3.193,2.54,2.155,1.27,2.963,2.209,269.0,612.0
2015-05-14,Sacramento,UnitedStates,-121.4944,38.5816,[-121.9944 38.0816 -120.9944 39.0816],2.413,1.648,3.174,2.528,2.153,1.288,2.999,2.205,268.0,651.0
2015-05-15,Sacramento,UnitedStates,-121.4944,38.5816,[-121.9944 38.0816 -120.9944 39.0816],2.44,1.659,3.206,2.533,2.179,1.275,2.994,2.209,276.0,686.0
2015-05-16,Sacramento,UnitedStates,-121.4944,38.5816,[-121.9944 38.0816 -120.9944 39.0816],2.44,1.659,3.193,2.529,2.189,1.303,3.022,2.206,291.0,678.0
2015-05-17,Sacramento,UnitedStates,-121.4944,38.5816,[-121.9944 38.0816 -120.9944 39.0816],2.549,1.648,3.366,2.592,2.164,1.283,3.005,2.17,260.0,640.0
2015-05-18,Sacramento,UnitedStates,-121.4944,38.5816,[-121.9944 38.0816 -120.9944 39.0816],2.425,1.706,3.193,2.532,2.2,1.305,3.046,2.209,290.0,634.0
2015-05-19,Sacramento,UnitedStates,-121.4944,38.5816,[-121.9944 38.0816 -120.9944 39.0816],2.451,1.902,3.262,2.611,2.214,1.337,3.073,2.231,257.0,639.0
2015-05-20,Sacramento,UnitedStates,-121.4944,38.5816,[-121.9944 38.0816 -120.9944 39.0816],2.154,1.56,3.088,2.401,2.07,1.255,3.003,2.125,259.0,637.0
2015-05-21,Sacramento,UnitedStates,-121.4944,38.5816,[-121.9944 38.0816 -120.9944 39.0816],2.142,1.56,3.073,2.364,2.053,1.283,2.996,2.106,256.0,640.0
2015-05-22,Sacramento,UnitedStates,-121.4944,38.5816,[-121.9944 38.0816 -120.9944 39.0816],2.365,1.584,3.518,2.611,2.106,1.249,3.156,2.183,263.0,638.0
2015-05-23,Sacramento,UnitedStates,-121.4944,38.5816,[-121.9944 38.0816 -120.9944 39.0816],2.355,1.578,3.518,2.612,2.146,1.307,3.17,2.217,276.0,641.0
2015-05-24,Sacramento,UnitedStates,-121.4944,38.5816,[-121.9944 38.0816 -120.9944 39.0816],2.303,1.56,3.502,2.54,2.215,1.342,3.263,2.272,259.0,634.0
2015-05-25,Sacramento,UnitedStates,-121.4944,38.5816,[-121.9944 38.0816 -120.9944 39.0816],2.157,1.548,3.431,2.484,2.153,1.305,3.215,2.233,284.0,631.0
2015-05-26,Sacramento,UnitedStates,-121.4944,38.5816,[-121.9944 38.0816 -120.9944 39.0816],2.121,1.516,3.191,2.398,2.123,1.258,3.132,2.176,256.0,609.0
2015-05-27,Sacramento,UnitedStates,-121.4944,38.5816,[-121.9944 38.0816 -120.9944 39.0816],2.146,1.548,3.278,2.435,2.111,1.287,3.145,2.199,277.0,608.0
2015-05-28,Sacramento,UnitedStates,-121.4944,38.5816,[-121.9944 38.0816 -120.9944 39.0816],2.146,1.548,3.366,2.449,2.032,1.244,3.132,2.156,250.0,605.0
2015-05-29,Sacramento,UnitedStates,-121.4944,38.5816,[-121.9944 38.0816 -120.9944 39.0816],2.372,1.56,3.752,2.727,2.118,1.261,3.185,2.246,256.0,565.0
2015-05-30,Sacramento,UnitedStates,-121.4944,38.5816,[-121.9944 38.0816 -120.9944 39.0816],2.303,1.516,3.583,2.651,2.132,1.287,3.235,2.281,268.0,539.0
2015-05-31,Sacramento,UnitedStates,-121.4944,38.5816,[-121.9944 38.0816 -120.9944 39.0816],2.282,1.514,3.569,2.607,2.152,1.298,3.235,2.286,274.0,545.0
2015-06-01,Sacramento,UnitedStates,-121.4944,38.5816,[-121.9944 38.0816 -120.9944 39.0816],2.303,1.514,3.534,2.611,2.183,1.367,3.271,2.319,299.0,575.0
2015-06-02,Sacramento,UnitedStates,-121.4944,38.5816,[-121.9944 38.0816 -120.9944 39.0816],2.402,1.443,3.915,2.687,2.092,1.333,3.239,2.271,269.0,573.0
2015-06-03,Sacramento,UnitedStates,-121.4944,38.5816,[-121.9944 38.0816 -120.9944 39.0816],2.402,1.443,3.915,2.687,2.073,1.343,3.181,2.253,269.0,567.0
2015-06-04,Sacramento,UnitedStates,-121.4944,38.5816,[-121.9944 38.0816 -120.9944 39.0816],2.907,1.665,4.441,3.006,2.166,1.375,3.196,2.282,237.0,571.0
2015-06-05,Sacramento,UnitedStates,-121.4944,38.5816,[-121.9944 38.0816 -120.9944 39.0816],2.629,1.572,3.92,2.83,2.179,1.397,3.211,2.341,257.0,569.0